Weather reports worldwide

Advertisment
La Coruna/Alvedro, Spain (8002): temperature & dewpoint: 03.12.2019 22:00:00 - 09.12.2019 22:00:00 (CET)La Coruna/Alvedro, Spain (8002): wind speed: 03.12.2019 22:00:00 - 09.12.2019 22:00:00 (CET)La Coruna/Alvedro, Spain (8002): wind direction: 03.12.2019 22:00:00 - 09.12.2019 22:00:00 (CET)La Coruna/Alvedro, Spain (8002): reduced air pressure: 03.12.2019 22:00:00 - 09.12.2019 22:00:00 (CET)La Coruna/Alvedro, Spain (8002): visibility: 03.12.2019 22:00:00 - 09.12.2019 22:00:00 (CET)
Date & Time tt [°C] td [°C] ff [km/h] ff [kn] dd ppp [hPa] vv [km]
09.12.2019 22:00:00 6,8 6,4 8 4 S 1033,2 3,0
09.12.2019 21:00:00 7,8 7,2 5 3 S 1033,3 5
09.12.2019 20:00:00 8,7 7,5 5 3 SSW 1033,2 6
09.12.2019 19:00:00 10,2 8,0 2 1 - 1032,8 10
09.12.2019 18:00:00 11,4 8,6 8 4 SSE 1032,4 10
09.12.2019 17:00:00 13,0 8,9 0 0 N 1032,6 10
09.12.2019 16:00:00 12,8 8,7 2 1 - 1032,4 10
09.12.2019 15:00:00 13,1 8,5 8 4 NW 1032,7 8
09.12.2019 14:00:00 13,4 8,5 5 3 WNW 1032,9 10
09.12.2019 13:00:00 12,5 9,8 5 3 S 1033,4 10
09.12.2019 12:00:00 11,6 9,2 4 2 SSE 1034,2 10
09.12.2019 11:00:00 10,6 8,9 8 4 SSE 1033,7 10
09.12.2019 10:00:00 9,8 8,2 8 4 SSW 1032,9 9
09.12.2019 09:00:00 9,7 8,1 5 3 S 1032,6 10
09.12.2019 08:00:00 9,6 8,0 5 3 SSW 1032,3 10
09.12.2019 07:00:00 10,4 7,8 5 3 W 1031,8 9
09.12.2019 06:00:00 9,2 7,5 9 5 SSW 1031,3 10
09.12.2019 05:00:00 10,4 7,8 8 4 WSW 1031,6 11
09.12.2019 04:00:00 9,4 7,5 13 7 SW 1031,5 10
09.12.2019 03:00:00 8,6 7,2 9 5 SW 1031,1 10
09.12.2019 02:00:00 8,4 7,2 11 6 SSW 1031,2 10
09.12.2019 01:00:00 8,4 6,7 11 6 SW 1031,3 10
09.12.2019 00:00:00 8,7 7,6 5 3 SSW 1030,8 10
08.12.2019 23:00:00 8,7 7,8 13 7 SSW 1030,6 8
08.12.2019 22:00:00 10,5 8,1 8 4 W 1030,2 10
08.12.2019 21:00:00 9,2 8,0 5 3 SSW 1029,6 6
08.12.2019 20:00:00 10,1 7,9 8 4 NW 1029,0 9
08.12.2019 19:00:00 9,8 8,1 4 2 W 1028,5 9
08.12.2019 18:00:00 11,1 8,7 4 2 - 1028,1 9
08.12.2019 17:00:00 12,6 8,5 4 2 WNW 1027,3 11
08.12.2019 16:00:00 12,8 8,3 11 6 N 1026,9 11
08.12.2019 15:00:00 12,8 9,6 15 8 NNW 1026,7 9
08.12.2019 14:00:00 12,8 10,3 13 7 N 1026,2 9
08.12.2019 13:00:00 12,7 12,1 9 5 NNW 1026,1 7
08.12.2019 12:00:00 14,1 13,5 13 7 NW 1025,4 2,3
08.12.2019 11:00:00 14,2 13,4 11 6 WNW 1024,6 5
08.12.2019 10:00:00 13,9 13,3 9 5 W 1023,9 3,4
08.12.2019 09:00:00 13,2 12,6 11 6 S 1023,0 3,5
08.12.2019 08:00:00 13,8 12,4 8 4 NW 1022,6 2,1
08.12.2019 07:00:00 13,7 11,9 26 14 SW 1021,7 10
08.12.2019 06:00:00 13,4 12,0 15 8 S 1022,0 3,5
08.12.2019 05:00:00 13,7 11,7 21 11 SSW 1022,4 10
08.12.2019 04:00:00 13,8 11,7 15 8 SSW 1022,9 10
08.12.2019 03:00:00 13,7 11,4 16 9 SSW 1022,6 10
08.12.2019 02:00:00 13,8 11,3 18 10 SSW 1023,0 30
08.12.2019 01:00:00 13,8 11,5 15 8 SW 1023,4 30
08.12.2019 00:00:00 13,8 11,3 13 7 SW 1023,4 10
07.12.2019 23:00:00 13,9 11,3 26 14 SW 1023,3 10
07.12.2019 22:00:00 13,6 11,1 18 10 SSW 1022,8 10
07.12.2019 21:00:00 13,6 11,1 15 8 - 1023,0 10
07.12.2019 20:00:00 13,4 11,1 8 4 - 1022,9 10
07.12.2019 19:00:00 12,9 11,1 8 4 S 1023,0 30
07.12.2019 18:00:00 13,3 11,0 16 9 SSW 1022,8 30
07.12.2019 17:00:00 13,9 11,4 21 11 SW 1022,8 10
07.12.2019 16:00:00 14,2 11,4 13 7 SW 1022,3 10
07.12.2019 15:00:00 14,0 11,0 8 4 SE 1022,6 24
07.12.2019 14:00:00 15,1 11,9 11 6 SSW 1022,9 28
07.12.2019 13:00:00 14,5 11,4 11 6 S 1023,6 10
07.12.2019 12:00:00 12,1 10,5 9 5 SSE 1024,3 10
07.12.2019 11:00:00 10,9 10,1 9 5 SSE 1024,4 10
07.12.2019 10:00:00 10,5 9,6 9 5 SSE 1024,1 2,9
07.12.2019 09:00:00 10,1 9,6 11 6 S 1023,6 6
07.12.2019 08:00:00 10,4 9,5 9 5 SSE 1023,6 2,2
07.12.2019 07:00:00 10,3 9,4 11 6 S 1023,2 8
07.12.2019 06:00:00 10,1 9,2 9 5 SSE 1023,1 6
07.12.2019 05:00:00 9,7 8,9 9 5 SSE 1023,3 7
07.12.2019 04:00:00 9,7 8,8 9 5 SSE 1023,8 2,6
07.12.2019 03:00:00 9,3 8,7 5 3 SSE 1023,6 6
07.12.2019 02:00:00 9,2 8,4 4 2 SE 1024,0 2,3
07.12.2019 01:00:00 8,8 7,9 9 5 SSE 1024,1 10
07.12.2019 00:00:00 8,6 7,8 11 6 S 1024,3 7
06.12.2019 23:00:00 8,8 8,0 8 4 S 1024,4 7
06.12.2019 22:00:00 8,5 7,9 13 7 S 1024,2 4,2
06.12.2019 21:00:00 8,9 8,0 9 5 S 1024,2 8
06.12.2019 20:00:00 10,0 8,8 4 2 SSW 1024,0 9
06.12.2019 19:00:00 10,4 9,2 4 2 - 1023,4 8
06.12.2019 18:00:00 12,0 9,7 0 0 N 1022,8 9
06.12.2019 17:00:00 12,7 9,7 4 2 NE 1023,3 10
06.12.2019 16:00:00 12,9 9,9 0 0 N 1022,8 12
06.12.2019 15:00:00 12,7 9,7 0 0 N 1023,3 10
06.12.2019 14:00:00 12,2 9,2 5 3 SSE 1023,7 7
06.12.2019 13:00:00 11,5 8,8 2 1 SSE 1024,5 9
06.12.2019 12:00:00 9,2 7,6 4 2 S 1024,6 10
06.12.2019 11:00:00 7,4 6,7 13 7 SSE 1024,2 10
06.12.2019 10:00:00 6,5 6,1 9 5 SSE 1024,7 8
06.12.2019 09:00:00 6,0 5,6 5 3 S 1024,2 6
06.12.2019 08:00:00 6,4 6,0 5 3 SSE 1023,5 9
06.12.2019 07:00:00 5,8 5,2 5 3 S 1023,0 7
06.12.2019 06:00:00 6,2 5,6 11 6 S 1023,2 4,5
06.12.2019 05:00:00 6,4 6,0 8 4 SSW 1023,5 4,0
06.12.2019 04:00:00 6,2 5,8 5 3 SW 1023,3 3,4
06.12.2019 03:00:00 6,2 5,8 11 6 S 1023,8 4,2
06.12.2019 02:00:00 6,5 6,1 8 4 S 1024,1 4,1
06.12.2019 01:00:00 6,9 6,3 4 2 SSW 1024,2 6
06.12.2019 00:00:00 6,9 6,0 9 5 S 1024,1 6
05.12.2019 23:00:00 8,4 7,6 4 2 - 1024,0 10
05.12.2019 22:00:00 8,8 7,9 4 2 - 1024,1 10
05.12.2019 21:00:00 10,1 8,4 4 2 - 1023,7 10
05.12.2019 20:00:00 10,6 8,5 5 3 NNE 1023,5 10
05.12.2019 19:00:00 10,6 8,4 8 4 NE 1023,2 10
05.12.2019 18:00:00 11,7 8,7 9 5 NNE 1023,1 10
05.12.2019 17:00:00 11,8 9,0 11 6 NNE 1022,7 19
05.12.2019 16:00:00 11,8 8,8 13 7 NNE 1022,8 24
05.12.2019 15:00:00 12,0 9,0 13 7 NNE 1023,1 10
05.12.2019 14:00:00 12,1 8,8 11 6 N 1023,6 10
05.12.2019 13:00:00 12,1 8,9 16 9 NE 1023,8 29
05.12.2019 12:00:00 12,4 8,7 11 6 N 1024,0 10
05.12.2019 11:00:00 11,5 7,8 15 8 N 1024,0 10
05.12.2019 10:00:00 11,3 7,4 13 7 N 1023,0 30
05.12.2019 09:00:00 10,7 6,9 11 6 NNE 1022,3 30
05.12.2019 08:00:00 10,3 7,5 11 6 NNE 1022,0 30
05.12.2019 07:00:00 9,2 7,0 8 4 N 1021,6 10
05.12.2019 06:00:00 8,3 6,1 9 5 N 1021,5 10
05.12.2019 05:00:00 4,7 3,5 2 1 - 1021,4 10
05.12.2019 04:00:00 4,1 2,8 8 4 S 1021,6 10
05.12.2019 03:00:00 4,3 3,1 4 2 SSW 1021,1 16
05.12.2019 02:00:00 3,9 2,7 8 4 S 1021,1 15
05.12.2019 01:00:00 4,8 3,3 0 0 N 1021,1 14
05.12.2019 00:00:00 4,8 3,3 0 0 N 1020,5 10
04.12.2019 23:00:00 7,8 4,7 4 2 NNW 1020,3 30
04.12.2019 22:00:00 8,3 4,5 5 3 NNE 1020,0 10
04.12.2019 21:00:00 7,2 2,6 8 4 ENE 1019,2 10
04.12.2019 20:00:00 7,9 3,2 8 4 N 1018,3 30
04.12.2019 19:00:00 8,5 3,5 5 3 N 1017,3 10
04.12.2019 18:00:00 9,3 3,7 5 3 N 1016,6 10
04.12.2019 17:00:00 10,9 4,8 8 4 N 1016,1 30
04.12.2019 16:00:00 10,8 4,9 11 6 N 1015,7 30
04.12.2019 15:00:00 10,4 4,2 9 5 N 1015,5 10
04.12.2019 14:00:00 10,3 2,8 8 4 N 1015,7 10
04.12.2019 13:00:00 9,1 1,1 0 0 N 1015,9 10
04.12.2019 12:00:00 7,4 1,8 2 1 - 1016,1 10
04.12.2019 11:00:00 4,8 1,2 2 1 - 1015,9 10
04.12.2019 10:00:00 1,7 0,1 4 2 - 1015,8 10
04.12.2019 09:00:00 0,9 -0,7 8 4 SSE 1015,3 10
04.12.2019 08:00:00 1,0 -0,5 13 7 S 1014,6 30
04.12.2019 07:00:00 1,0 -0,8 9 5 SSW 1014,1 10
04.12.2019 06:00:00 0,9 -0,6 8 4 SSW 1013,9 30
04.12.2019 05:00:00 1,9 0,5 4 2 WNW 1013,8 30
04.12.2019 04:00:00 1,5 0,2 8 4 SSE 1014,0 10
04.12.2019 03:00:00 0,2 -0,2 11 6 S 1014,2 6
04.12.2019 02:00:00 0,9 0,2 11 6 S 1014,8 9
04.12.2019 01:00:00 1,6 0,7 8 4 SSE 1015,2 13
04.12.2019 00:00:00 1,6 0,9 13 7 S 1015,4 10
03.12.2019 23:00:00 2,4 1,5 9 5 S 1015,9 10
03.12.2019 22:00:00 3,5 2,2 11 6 S 1015,6 10

tt = temperature
td = dewpoint
ff = wind speed
dd = wind direction
ppp = reduced air pressure
vv = visibility

Next stations